FFL9133 MYNN-KMCO

Flight info

Callsign FFL9133
Flight time 0h 56m
Altitude 22000
Route PEACH CCLUB MUNGI1
Aircraft B737/M-SDE2E3FGHIRWXY/LB1

Departure

Time 2026-04-22 15:26
Airport Lynden Pindling International Airport (MYNN)

Arrival

Time 2026-04-22 16:22
Airport Orlando International Airport (KMCO)
Time Latitude Longitude Altitude Speed Heading
2026-04-22 15:12 25.05039 -77.46887 7 ft 0 kts 352°
2026-04-22 15:20 25.05030 -77.46886 17 ft 2 kts 344°
2026-04-22 15:20 25.05014 -77.46881 17 ft 2 kts 56°
2026-04-22 15:20 25.05012 -77.46876 16 ft 0 kts 131°
2026-04-22 15:20 25.05012 -77.46875 16 ft 0 kts 131°
2026-04-22 15:23 25.05004 -77.46871 17 ft 5 kts 162°
2026-04-22 15:23 25.04967 -77.46898 16 ft 9 kts 222°
2026-04-22 15:24 25.04909 -77.46954 16 ft 12 kts 227°
2026-04-22 15:24 25.04929 -77.47030 17 ft 12 kts 315°
2026-04-22 15:24 25.04990 -77.47102 18 ft 15 kts 313°
2026-04-22 15:24 25.05078 -77.47198 18 ft 19 kts 314°
2026-04-22 15:25 25.05174 -77.47307 19 ft 21 kts 314°
2026-04-22 15:25 25.05221 -77.47415 18 ft 10 kts 265°
2026-04-22 15:25 25.05213 -77.47493 19 ft 10 kts 252°
2026-04-22 15:25 25.05171 -77.47546 20 ft 10 kts 192°
2026-04-22 15:26 25.05124 -77.47509 22 ft 8 kts 130°
2026-04-22 15:26 25.05057 -77.47431 19 ft 36 kts 135°
2026-04-22 15:26 25.04633 -77.46950 21 ft 137 kts 134°
2026-04-22 15:26 25.03836 -77.46114 897 ft 159 kts 130°
2026-04-22 15:27 25.03038 -77.45271 2297 ft 166 kts 129°
2026-04-22 15:27 25.02169 -77.44350 3571 ft 177 kts 130°
2026-04-22 15:27 25.01302 -77.43426 4968 ft 167 kts 129°
2026-04-22 15:27 25.00711 -77.42249 5691 ft 186 kts 96°
2026-04-22 15:28 25.00965 -77.40861 6640 ft 193 kts 61°
2026-04-22 15:28 25.01992 -77.39864 7491 ft 207 kts 25°
2026-04-22 15:28 25.03438 -77.39696 8466 ft 216 kts 349°
2026-04-22 15:28 25.04787 -77.40412 9589 ft 216 kts 324°
2026-04-22 15:29 25.05975 -77.41474 10517 ft 225 kts 319°
2026-04-22 15:29 25.07230 -77.42692 10956 ft 257 kts 318°
2026-04-22 15:29 25.08655 -77.44093 11230 ft 293 kts 318°
2026-04-22 15:30 25.11432 -77.46812 11629 ft 348 kts 318°
2026-04-22 15:30 25.13974 -77.49282 11947 ft 382 kts 318°
2026-04-22 15:30 25.15999 -77.51241 12564 ft 392 kts 318°
2026-04-22 15:30 25.18067 -77.53235 13360 ft 395 kts 318°
2026-04-22 15:31 25.20149 -77.55239 14168 ft 398 kts 318°
2026-04-22 15:31 25.22255 -77.57266 14844 ft 402 kts 318°
2026-04-22 15:31 25.24371 -77.59304 15536 ft 406 kts 317°
2026-04-22 15:31 25.26497 -77.61352 16230 ft 408 kts 317°
2026-04-22 15:32 25.28651 -77.63429 16930 ft 411 kts 317°
2026-04-22 15:32 25.30810 -77.65512 17567 ft 415 kts 317°
2026-04-22 15:32 25.33001 -77.67629 18173 ft 419 kts 317°
2026-04-22 15:32 25.35172 -77.69728 18729 ft 422 kts 317°
2026-04-22 15:33 25.37394 -77.71875 19266 ft 424 kts 317°
2026-04-22 15:33 25.39620 -77.74026 19819 ft 426 kts 317°
2026-04-22 15:33 25.41848 -77.76181 20366 ft 427 kts 317°
2026-04-22 15:33 25.44098 -77.78355 20882 ft 429 kts 317°
2026-04-22 15:34 25.46361 -77.80528 21397 ft 431 kts 317°
2026-04-22 15:34 25.48626 -77.82697 21911 ft 432 kts 317°
2026-04-22 15:34 25.50904 -77.84879 22220 ft 434 kts 317°
2026-04-22 15:34 25.53197 -77.87076 22223 ft 433 kts 317°
2026-04-22 15:35 25.54700 -77.88518 22232 ft 432 kts 317°
2026-04-22 15:35 25.57741 -77.91438 22244 ft 433 kts 316°
2026-04-22 15:35 25.60017 -77.93626 22244 ft 433 kts 316°
2026-04-22 15:35 25.62265 -77.95790 22241 ft 433 kts 316°
2026-04-22 15:36 25.64544 -77.97983 22243 ft 434 kts 316°
2026-04-22 15:36 25.66816 -78.00173 22239 ft 434 kts 316°
2026-04-22 15:36 25.69093 -78.02367 22237 ft 433 kts 316°
2026-04-22 15:36 25.71377 -78.04570 22239 ft 433 kts 316°
2026-04-22 15:37 25.73648 -78.06761 22243 ft 433 kts 316°
2026-04-22 15:37 25.75921 -78.08955 22242 ft 433 kts 316°
2026-04-22 15:37 25.78192 -78.11149 22240 ft 433 kts 316°
2026-04-22 15:37 25.80462 -78.13342 22241 ft 432 kts 316°
2026-04-22 15:38 25.82728 -78.15533 22245 ft 432 kts 316°
2026-04-22 15:38 25.86502 -78.19185 22245 ft 432 kts 316°
2026-04-22 15:38 25.88769 -78.21380 22244 ft 432 kts 316°
2026-04-22 15:39 25.91035 -78.23576 22245 ft 432 kts 316°
2026-04-22 15:39 25.93300 -78.25771 22245 ft 432 kts 316°
2026-04-22 15:39 25.95569 -78.27972 22245 ft 432 kts 316°
2026-04-22 15:39 25.97824 -78.30160 22246 ft 432 kts 316°
2026-04-22 15:40 26.00098 -78.32367 22254 ft 432 kts 316°
2026-04-22 15:40 26.02355 -78.34560 22244 ft 432 kts 316°
2026-04-22 15:40 26.04627 -78.36768 22247 ft 432 kts 316°
2026-04-22 15:40 26.06893 -78.38972 22253 ft 432 kts 316°
2026-04-22 15:41 26.09153 -78.41170 22250 ft 433 kts 316°
2026-04-22 15:41 26.11422 -78.43379 22250 ft 433 kts 316°
2026-04-22 15:41 26.13682 -78.45580 22252 ft 433 kts 316°
2026-04-22 15:41 26.15955 -78.47795 22254 ft 433 kts 316°
2026-04-22 15:42 26.18224 -78.50007 22253 ft 433 kts 316°
2026-04-22 15:42 26.20462 -78.52191 22257 ft 433 kts 316°
2026-04-22 15:42 26.22722 -78.54397 22256 ft 433 kts 316°
2026-04-22 15:42 26.24987 -78.56609 22258 ft 433 kts 316°
2026-04-22 15:43 26.27251 -78.58821 22260 ft 433 kts 316°
2026-04-22 15:43 26.29509 -78.61029 22263 ft 433 kts 316°
2026-04-22 15:43 26.31780 -78.63250 22264 ft 433 kts 316°
2026-04-22 15:43 26.34025 -78.65448 22267 ft 433 kts 316°
2026-04-22 15:44 26.36303 -78.67678 22273 ft 433 kts 316°
2026-04-22 15:44 26.38559 -78.69889 22274 ft 433 kts 316°
2026-04-22 15:44 26.40833 -78.72118 22274 ft 433 kts 316°
2026-04-22 15:44 26.43064 -78.74306 22275 ft 433 kts 316°
2026-04-22 15:45 26.45354 -78.76554 22272 ft 433 kts 316°
2026-04-22 15:45 26.47599 -78.78759 22271 ft 433 kts 316°
2026-04-22 15:45 26.49858 -78.80978 22276 ft 433 kts 316°
2026-04-22 15:45 26.52124 -78.83206 22275 ft 433 kts 316°
2026-04-22 15:46 26.54381 -78.85425 22278 ft 433 kts 316°
2026-04-22 15:46 26.56648 -78.87656 22272 ft 433 kts 316°
2026-04-22 15:46 26.58907 -78.89880 22273 ft 433 kts 316°
2026-04-22 15:46 26.61170 -78.92109 22277 ft 433 kts 316°
2026-04-22 15:47 26.63434 -78.94341 22270 ft 433 kts 316°
2026-04-22 15:47 26.65700 -78.96576 22268 ft 433 kts 316°
2026-04-22 15:47 26.67930 -78.98776 22274 ft 433 kts 316°
2026-04-22 15:47 26.70195 -79.01013 22269 ft 433 kts 316°
2026-04-22 15:48 26.72459 -79.03249 22266 ft 433 kts 316°
2026-04-22 15:48 26.74728 -79.05491 22269 ft 433 kts 316°
2026-04-22 15:48 26.76982 -79.07721 22267 ft 433 kts 316°
2026-04-22 15:48 26.79239 -79.09954 22266 ft 433 kts 316°
2026-04-22 15:49 26.81496 -79.12188 22268 ft 433 kts 316°
2026-04-22 15:49 26.83759 -79.14431 22269 ft 433 kts 316°
2026-04-22 15:49 26.86020 -79.16672 22272 ft 434 kts 316°
2026-04-22 15:49 26.88270 -79.18903 22274 ft 434 kts 316°
2026-04-22 15:50 26.90513 -79.21129 22273 ft 434 kts 316°
2026-04-22 15:50 26.92765 -79.23364 22275 ft 434 kts 316°
2026-04-22 15:50 26.95030 -79.25615 22272 ft 434 kts 316°
2026-04-22 15:50 26.97288 -79.27859 22271 ft 434 kts 316°
2026-04-22 15:51 26.99550 -79.30109 22275 ft 434 kts 316°
2026-04-22 15:51 27.01807 -79.32355 22275 ft 434 kts 316°
2026-04-22 15:51 27.04065 -79.34604 22275 ft 434 kts 316°
2026-04-22 15:51 27.06324 -79.36854 22273 ft 434 kts 316°
2026-04-22 15:52 27.08579 -79.39102 22274 ft 434 kts 316°
2026-04-22 15:52 27.10841 -79.41359 22277 ft 434 kts 316°
2026-04-22 15:52 27.13102 -79.43616 22278 ft 434 kts 316°
2026-04-22 15:52 27.15358 -79.45870 22278 ft 434 kts 316°
2026-04-22 15:53 27.17616 -79.48126 22278 ft 435 kts 316°
2026-04-22 15:53 27.19876 -79.50384 22279 ft 435 kts 316°
2026-04-22 15:53 27.21941 -79.52850 22258 ft 432 kts 303°
2026-04-22 15:53 27.23412 -79.55774 22291 ft 430 kts 296°
2026-04-22 15:54 27.24753 -79.58783 22277 ft 431 kts 295°
2026-04-22 15:54 27.26082 -79.61808 22275 ft 431 kts 295°
2026-04-22 15:54 27.27391 -79.64782 22277 ft 431 kts 295°
2026-04-22 15:54 27.28729 -79.67804 22279 ft 431 kts 296°
2026-04-22 15:55 27.30070 -79.70814 22281 ft 431 kts 296°
2026-04-22 15:55 27.31423 -79.73836 22281 ft 431 kts 296°
2026-04-22 15:55 27.32774 -79.76845 22281 ft 431 kts 296°
2026-04-22 15:55 27.34126 -79.79853 22279 ft 431 kts 296°
2026-04-22 15:56 27.35478 -79.82860 22278 ft 431 kts 296°
2026-04-22 15:56 27.36833 -79.85875 22280 ft 431 kts 296°
2026-04-22 15:56 27.38182 -79.88882 22281 ft 430 kts 296°
2026-04-22 15:56 27.39527 -79.91879 22279 ft 430 kts 296°
2026-04-22 15:57 27.40879 -79.94897 22279 ft 430 kts 296°
2026-04-22 15:57 27.42204 -79.97856 22279 ft 430 kts 296°
2026-04-22 15:57 27.43554 -80.00873 22278 ft 430 kts 296°
2026-04-22 15:57 27.44902 -80.03890 22279 ft 430 kts 296°
2026-04-22 15:58 27.46248 -80.06902 22283 ft 431 kts 296°
2026-04-22 15:58 27.47592 -80.09914 22270 ft 431 kts 296°
2026-04-22 15:58 27.48934 -80.12923 22284 ft 431 kts 296°
2026-04-22 15:58 27.50280 -80.15942 22282 ft 431 kts 296°
2026-04-22 15:59 27.51626 -80.18963 22280 ft 431 kts 296°
2026-04-22 15:59 27.52967 -80.21977 22286 ft 430 kts 296°
2026-04-22 15:59 27.54306 -80.24988 22283 ft 431 kts 296°
2026-04-22 15:59 27.55653 -80.28018 22281 ft 431 kts 296°
2026-04-22 16:00 27.56975 -80.30996 22284 ft 430 kts 296°
2026-04-22 16:00 27.58317 -80.34018 22290 ft 430 kts 296°
2026-04-22 16:00 27.59651 -80.37027 22297 ft 430 kts 296°
2026-04-22 16:00 27.60995 -80.40060 22299 ft 430 kts 296°
2026-04-22 16:01 27.62337 -80.43090 22231 ft 430 kts 296°
2026-04-22 16:01 27.63671 -80.46105 22287 ft 430 kts 296°
2026-04-22 16:01 27.64997 -80.49105 22289 ft 430 kts 296°
2026-04-22 16:01 27.66331 -80.52123 22282 ft 430 kts 296°
2026-04-22 16:02 27.67667 -80.55151 22290 ft 430 kts 296°
2026-04-22 16:02 27.68997 -80.58166 22288 ft 430 kts 295°
2026-04-22 16:02 27.70332 -80.61194 22282 ft 431 kts 295°
2026-04-22 16:02 27.71666 -80.64225 22284 ft 431 kts 295°
2026-04-22 16:03 27.73003 -80.67262 22243 ft 431 kts 295°
2026-04-22 16:03 27.74332 -80.70286 21910 ft 430 kts 295°
2026-04-22 16:03 27.75658 -80.73301 21615 ft 428 kts 295°
2026-04-22 16:03 27.76981 -80.76311 21314 ft 427 kts 295°
2026-04-22 16:04 27.78425 -80.79242 21018 ft 428 kts 301°
2026-04-22 16:04 27.80078 -80.82029 20729 ft 428 kts 303°
2026-04-22 16:04 27.81803 -80.84763 20433 ft 428 kts 304°
2026-04-22 16:04 27.83540 -80.87505 20152 ft 427 kts 303°
2026-04-22 16:05 27.84673 -80.89321 19965 ft 427 kts 303°
2026-04-22 16:05 27.86933 -80.93015 19581 ft 426 kts 302°
2026-04-22 16:05 27.88581 -80.95749 19312 ft 426 kts 302°
2026-04-22 16:05 27.90244 -80.98515 19032 ft 426 kts 302°
2026-04-22 16:06 27.91915 -81.01280 18756 ft 425 kts 304°
2026-04-22 16:06 27.93975 -81.03704 18348 ft 428 kts 320°
2026-04-22 16:06 27.96505 -81.05321 17898 ft 408 kts 336°
2026-04-22 16:06 27.99088 -81.06374 17457 ft 383 kts 338°
2026-04-22 16:07 28.01538 -81.07339 16987 ft 363 kts 338°
2026-04-22 16:07 28.03853 -81.08282 16508 ft 347 kts 337°
2026-04-22 16:07 28.06086 -81.09216 16022 ft 334 kts 337°
2026-04-22 16:07 28.08221 -81.10120 15569 ft 323 kts 336°
2026-04-22 16:08 28.10263 -81.11007 15114 ft 313 kts 336°
2026-04-22 16:08 28.12268 -81.11890 14660 ft 305 kts 336°
2026-04-22 16:08 28.14224 -81.12757 14220 ft 298 kts 336°
2026-04-22 16:08 28.16136 -81.13603 13745 ft 292 kts 336°
2026-04-22 16:09 28.18011 -81.14433 13251 ft 286 kts 337°
2026-04-22 16:09 28.19849 -81.15247 12771 ft 282 kts 337°
2026-04-22 16:09 28.21664 -81.16048 12294 ft 278 kts 338°
2026-04-22 16:09 28.23439 -81.16832 11824 ft 275 kts 338°
2026-04-22 16:10 28.25220 -81.17618 11335 ft 274 kts 338°
2026-04-22 16:10 28.26998 -81.18384 10857 ft 273 kts 342°
2026-04-22 16:10 28.28231 -81.18632 10533 ft 272 kts 358°
2026-04-22 16:10 28.30758 -81.18647 9898 ft 270 kts
2026-04-22 16:11 28.32643 -81.18650 9408 ft 271 kts
2026-04-22 16:11 28.34533 -81.18668 8891 ft 272 kts
2026-04-22 16:11 28.36421 -81.18697 8377 ft 270 kts
2026-04-22 16:11 28.38291 -81.18729 7890 ft 268 kts
2026-04-22 16:12 28.40145 -81.18757 7400 ft 266 kts
2026-04-22 16:12 28.41979 -81.18773 6974 ft 262 kts
2026-04-22 16:12 28.43800 -81.18786 6518 ft 259 kts
2026-04-22 16:12 28.45564 -81.18799 6067 ft 256 kts
2026-04-22 16:13 28.47335 -81.18813 5607 ft 253 kts
2026-04-22 16:13 28.49093 -81.18827 5168 ft 251 kts
2026-04-22 16:13 28.50858 -81.18840 4723 ft 255 kts
2026-04-22 16:13 28.52610 -81.18855 4336 ft 247 kts
2026-04-22 16:14 28.54304 -81.18869 4063 ft 237 kts
2026-04-22 16:14 28.55876 -81.18811 4021 ft 215 kts
2026-04-22 16:14 28.57311 -81.18717 4025 ft 200 kts
2026-04-22 16:14 28.58687 -81.18605 4021 ft 197 kts
2026-04-22 16:15 28.60071 -81.18486 4027 ft 199 kts
2026-04-22 16:15 28.61428 -81.18377 4016 ft 198 kts
2026-04-22 16:15 28.62814 -81.18433 3872 ft 206 kts 348°
2026-04-22 16:15 28.64026 -81.19342 3547 ft 213 kts 311°
2026-04-22 16:16 28.64553 -81.20845 3204 ft 202 kts 273°
2026-04-22 16:16 28.64504 -81.22396 2901 ft 192 kts 265°
2026-04-22 16:16 28.64404 -81.23903 2573 ft 190 kts 265°
2026-04-22 16:16 28.64297 -81.25401 2404 ft 189 kts 265°
2026-04-22 16:17 28.64097 -81.26894 2360 ft 192 kts 251°
2026-04-22 16:17 28.63305 -81.27985 2321 ft 178 kts 205°
2026-04-22 16:17 28.62199 -81.28642 2325 ft 179 kts 204°
2026-04-22 16:17 28.61100 -81.29323 2319 ft 179 kts 204°
2026-04-22 16:18 28.60039 -81.29992 2316 ft 177 kts 204°
2026-04-22 16:18 28.58969 -81.30673 2306 ft 171 kts 205°
2026-04-22 16:18 28.57971 -81.31312 2330 ft 161 kts 205°
2026-04-22 16:18 28.57010 -81.31926 2378 ft 150 kts 203°
2026-04-22 16:19 28.56104 -81.32363 2336 ft 144 kts 194°
2026-04-22 16:19 28.55149 -81.32658 2191 ft 141 kts 185°
2026-04-22 16:19 28.54179 -81.32771 2009 ft 139 kts 176°
2026-04-22 16:19 28.53216 -81.32791 1852 ft 137 kts 172°
2026-04-22 16:20 28.52280 -81.32754 1706 ft 135 kts 173°
2026-04-22 16:20 28.51341 -81.32751 1542 ft 136 kts 173°
2026-04-22 16:20 28.50379 -81.32740 1344 ft 139 kts 173°
2026-04-22 16:20 28.49414 -81.32724 1127 ft 139 kts 173°
2026-04-22 16:21 28.48535 -81.32726 940 ft 141 kts 175°
2026-04-22 16:21 28.47563 -81.32727 742 ft 138 kts 173°
2026-04-22 16:21 28.46608 -81.32712 491 ft 138 kts 172°
2026-04-22 16:21 28.45649 -81.32708 303 ft 136 kts 172°
2026-04-22 16:22 28.43923 -81.32682 100 ft 99 kts 171°
2026-04-22 16:22 28.43422 -81.32666 100 ft 52 kts 181°
2026-04-22 16:22 28.43089 -81.32668 99 ft 41 kts 179°
2026-04-22 16:23 28.42907 -81.32809 100 ft 16 kts 266°
2026-04-22 16:23 28.42931 -81.32922 98 ft 15 kts 335°
2026-04-22 16:23 28.43026 -81.32931 99 ft 12 kts 332°
2026-04-22 16:24 28.43049 -81.33007 97 ft 10 kts 270°
2026-04-22 16:24 28.43123 -81.33070 97 ft 0 kts